Regional Weather Roundup
Issued by NWS Grand Forks, ND

Home | Current Version | Previous Version | Text Only | Print | Product List | Glossary On
Versions: 1 2 3 4 5 6 7 8 9 10 11 12 13 14 15 16 17 18 19 20 21 22 23 24 25 26 27 28 29 30 31 32 33 34 35 36 37 38 39 40 41 42 43 44 45 46 47 48 49 50
000
ASUS43 KFGF 211531
RWRFGF
PRAIRIE TO PINES  WEATHER ROUNDUP
NATIONAL WEATHER SERVICE EASTERN NORTH DAKOTA/GRAND FORKS ND
1000 AM CDT TUE APR 21 2015

 **SATELLITE DATA USED TO AUGMENT SKY COVER AT AUTOMATED STATIONS**
 *****  WEATHER ACROSS EASTERN NORTH DAKOTA  *****

CITY           SKY/WX    TMP DP  RH WIND       PRES   REMARKS
GRAND FORKS    CLOUDY    32  25  75 N26G38    29.74R WCI  18
GRAND FRKS AFB CLOUDY    32  23  70 N20G35    29.75R WCI  20
GRAND FRKS NWS   N/A     32 N/A N/A N30         N/A  WCI  18
DEVILS LAKE    CLOUDY    34  23  64 N31       29.81R WCI  20
FARGO          CLOUDY    35  27  72 NW28      29.72R WCI  22
WAHPETON ARPT  CLOUDY    34  27  75 NW25G35   29.72R WCI  21
$$

 ***** WEATHER ACROSS CENTRAL AND WESTERN NORTH DAKOTA  *****

CITY           SKY/WX    TMP DP  RH WIND       PRES   REMARKS
BISMARCK       PTSUNNY   37  26  64 N15       29.89R
MINOT          CLOUDY    34  23  64 N17G25    29.92R WCI  23
JAMESTOWN      CLOUDY    34  24  67 N22G28    29.79R WCI  22
MINOT AFB      CLOUDY    34  25  69 NE20      29.91R WCI  23
GARRISON         N/A     35  26  69 N13G23    29.89R
WILLISTON      SUNNY     39  24  55 N7        29.95R
DICKINSON      PTSUNNY   35  24  64 NE10      29.87R
HETTINGER      PTSUNNY   37  27  67 NE14      29.89R
$$

 *****  OTHER AIRPORT OBSERVATIONS IN OUR AREA  *****

CITY           SKY/WX    TMP DP  RH WIND       PRES   REMARKS
WALHALLA       CLOUDY    30  28  93 N20G29    29.82R WCI  18
GRAFTON AIRPOR DRIZZLE   30  28  93 N30G37    29.77R WCI  15
VALLEY CITY AR FLURRIES  32  27  80 N29G38    29.77R WCI  18
CANDO          CLOUDY    32  23  69 N28       29.85R WCI  18
CAVALIER APRT  CLOUDY    32  23  69 N30G43    29.79R WCI  18
GWINNER        CLOUDY    37  25  60 N22G36    29.78R
SHEYENNE NWR     N/A     35  24  63 N15       29.95
ROLLA          CLOUDY    32  19  59 N31       29.86R WCI  17
 ***** THE ABOVE OBSERVATIONS ARE NON NWS ARE NOT QUALITY
       CONTROLLED AND MAY MIS-REPORT RAIN FOR SNOW...
$$

  *****  WEATHER ACROSS NORTHERN MINNESOTA  *****

CITY           SKY/WX    TMP DP  RH WIND       PRES   REMARKS
FLAG ISLAND    CLOUDY    28  23  80 NW26      29.60R HAZE    WCI  13
WARROAD        LGT SNOW  30  25  80 NW17G23   29.63R WCI  18
ROSEAU         LGT SNOW  30  25  80 N18G31    29.65R WCI  18
HALLOCK        MOSUNNY   30  27  86 N28G37    29.74R HAZE    WCI  16
THF RVR FALLS  CLOUDY    30  25  80 N28G35    29.67R WCI  16
BAUDETTE       LGT SNOW  28  22  78 N23G32    29.57R WCI  14
WASKISH        LGT SNOW  28  25  86 NW15G21   29.56R WCI  17
CROOKSTON      PTSUNNY   32  27  80 N28G45    29.72R HAZE    WCI  18
STEPHEN NDAWN    N/A     30  27  86 N26         N/A  WCI  16
GREENBUSH NDAW   N/A     28  25  86 N28         N/A  WCI  13
$$
  *****  WEATHER ACROSS CENTRAL AND WEST MINNESOTA  *****

CITY           SKY/WX    TMP DP  RH WIND       PRES   REMARKS
FOSSTON        LGT SNOW  28  25  86 NW24G32   29.64R WCI  14
BEMIDJI        LGT SNOW  29  25  86 NW15      29.56R VSB 1   WCI  18
PARK RAPIDS    LGT SNOW  33  24  69 NW22G31   29.56R WCI  21
ELBOW LAKE     CLOUDY    33  28  80 NW26G38   29.67R WCI  20
WADENA         DRIZZLE   30  23  74 NW26      29.59R WCI  16
DETROIT LAKES  MIX PCPN  32  28  86 NW22G39   29.65R WCI  19
MOORHEAD       CLOUDY    34  27  75 NW26G37   29.72R WCI  21
FERGUS FALLS   LGT RAIN  34  27  75 N26G39    29.70R WCI  21
MORRIS MN      CLOUDY    34  27  75 NW29G41   29.68R WCI  20
STAPLES        DRIZZLE   30  25  80 NW23G29   29.57R WCI  17
$$
  *****  WEATHER ELSEWHERE ACROSS MINNESOTA  *****

CITY           SKY/WX    TMP DP  RH WIND       PRES   REMARKS
DULUTH         LGT SNOW  33  23  66 NW25G35   29.40R VSB 1   WCI  20
INTRNTL FALLS  LGT SNOW  27  21  78 N18       29.50R VSB 3/4 WCI  14
ELY            LGT SNOW  28  23  80 NW10G20   29.39R WCI  19
CLOQUET        LGT SNOW  32  23  69 NW18G36   29.44R WCI  20
WHEATON        CLOUDY    34  25  69 NW20G36   29.75R WCI  22
BRAINERD       CLOUDY    33  24  69 NW20G28   29.53S WCI  21
HIBBING        MIX PCPN  30  21  69 NW26G32   29.44R WCI  16
ALEXANDRIA     CLOUDY    33  24  69 NW26G41   29.62R WCI  20
SAINT CLOUD    CLOUDY    36  22  56 NW23G38   29.56R
MINNEAPOLIS    CLOUDY    37  25  61 W21G31    29.56S
$$

  *****  WEATHER ACROSS SOUTH DAKOTA  *****

CITY           SKY/WX    TMP DP  RH WIND       PRES   REMARKS
SIOUX FALLS    PTSUNNY   41  23  48 N24G31    29.78S
BROOKINGS      PTSUNNY   39  25  56 NW28      29.76S
WATERTOWN      PTSUNNY   37  24  59 NW25G35   29.75R
HURON          PTSUNNY   40  25  55 NW15      29.83S
SISSETON         N/A     36  25  64 N31       29.73R
ABERDEEN       CLOUDY    39  24  55 NW20G25   29.83R
MITCHELL       MOSUNNY   42  26  53 N17       29.84S
PIERRE         CLOUDY    40  26  57 NE16      29.83S
MOBRIDGE       PTSUNNY   39  28  64 N14       29.82S
RAPID CITY     MOSUNNY   52  26  36 NE17      29.78S
$$

  *****  SOME WEATHER IN NEARBY STATES *****

CITY           SKY/WX    TMP DP  RH WIND       PRES   REMARKS
GLASGOW MT     SUNNY     40  26  57 E15       29.94R
GREAT FALLS MT SUNNY     46  31  55 SW8       29.89S
CHEYENNE WY    SUNNY     50  25  37 W12       29.93S
SCOTTSBLUFF NE SUNNY     45  31  58 W8        29.89S
OMAHA NE       SUNNY     54  24  31 W18G24    29.80F
DES MOINES IA  MOSUNNY   52  18  26 NW22G28   29.76S
DAVENPORT IA   SUNNY     47  31  53 W24G32    29.70R
CHICAGO IL     PTSUNNY   43  27  53 W30G43    29.61R
EAU CLAIRE WI  CLOUDY    36  27  69 W15G26    29.50R
LA CROSSE WI   CLOUDY    39  25  57 W15G24    29.56R
$$

  *****  SOME NATIONAL WEATHER *****

CITY           SKY/WX    TMP DP  RH WIND       PRES   REMARKS
LA GUARDIA NY  MOSUNNY   58  47  66 NW8       29.66R
RALEIGH NC     MOSUNNY   63  41  44 NW9G18    29.91R
ATLANTA GA     SUNNY     63  38  39 NW8G18    30.01R
NEW ORLEANS LA PTSUNNY   70  48  45 NE14      30.07R
OKLAHOMA CITY  MOSUNNY   61  45  55 S9        29.98S
ALBUQUERQUE NM MOSUNNY   54  25  32 CALM      30.03S
SALT LAKE CITY MOSUNNY   55  31  39 SE9       29.90S
LOS ANGELES CA CLOUDY    59  48  67 SE5       29.94R
BOISE ID       SUNNY     53  34  48 SE6       29.86R
SEATTLE WA     PTSUNNY   51  46  83 S6        29.93R
$$

*** WEATHER ACROSS MANITOBA...SASKATCHEWAN AND ONTARIO ***
                ***ONTARIO***

CITY           SKY/WX    TMP DP  RH WIND       PRES   REMARKS
GERALDTON      LGT SNOW  30  27  86 NW6       29.19R VSB 1   WCI  24
THUNDER BAY    FLURRIES  32  27  80 NW17G23   29.31R WCI  21
SIOUX LOOKOUT  LGT SNOW  23  21  93 N12G23    29.43R VSB 3/4 WCI  12
TORONTO        PTSUNNY   48  36  61 SW15G23   29.55F
BIG TROUT LK   LGT SNOW  18  14  86 N23G32    29.59R VSB 5/8 WCI   0
PICKLE LAKE    LGT SNOW  21  18  86 N14G25    29.39R VSB 1   WCI   8
DRYDEN         LGT SNOW  25  21  86 N12G25    29.47R VSB 3/4 WCI  14
KENORA         LGT SNOW  25  21  86 N17G25    29.56R VSB 1   WCI  11
$$
                *** MANITOBA***

CITY           SKY/WX    TMP DP  RH WIND       PRES   REMARKS
BRANDON        PTSUNNY   36  21  55 N26       29.92R
DAUPHIN        SUNNY     36  16  44 N14G20    30.00R
ISLAND LAKE    FLURRIES  21  16  79 N16G30    29.90R WCI   7
PILOT MOUND      N/A     30  21  69 N25G35      N/A  WCI  16
THE PAS        MOSUNNY   30  25  80 N6        30.07R WCI  24
THOMPSON       PTSUNNY   21  18  86 N13       30.09R WCI   9
WINNIPEG       FLURRIES  28  21  74 N31G40    29.81R WCI  12
LYNN LAKE      PTSUNNY   30  21  69 SE9       30.07S WCI  22
CHURCHILL      LGT SNOW  16  12  86 NE16G23   30.20R DRFTSNOWWCI   0
GILLAM         FLURRIES  19  12  73 N17       30.07R WCI   4
$$
                ***SASKATCHEWAN***

CITY           SKY/WX    TMP DP  RH WIND       PRES   REMARKS
ESTEVAN        MOSUNNY   34  27  75 NE9G17    29.97R
KINDERSLEY     MOSUNNY   39  30  70 SE14      29.96R
LLOYDMINSTER   MOSUNNY   37  30  75 S12       29.93S
PRINCE ALBERT  SUNNY     39  25  56 S8        30.04S
REGINA         MOSUNNY   36  25  64 NE7       30.01R
YORKTON        PTSUNNY   36  23  60 N13       30.01R
N. BATTLEFORD  SUNNY     37  30  75 SE8       30.01S
LA RONGE       PTSUNNY   36  19  51 S6        30.02S
SASKATOON      SUNNY     39  25  56 SE8       30.04R
SWIFT CURRENT  SUNNY     37  28  70 E15       29.95R
$$
NOTE: THESE ARE AUTOMATED STATIONS WITH LIMITED QUALITY CONTROL
      "FAIR" INDICATES FEW OR NO CLOUDS BELOW 12,000 FEET WITH NO
      SIGNIFICANT WEATHER AND/OR OBSTRUCTIONS TO VISIBILITY.
      SKY/WX - SKY CONDITION AND SIGNIFICANT WEATHER.
      TMP - AIR TEMPERATURE.    DP   - DEWPOINT TEMPERATURE.
      RH  - RELATIVE HUMIDITY.  PRES - PRESSURE.
      HX  - HEAT INDEX.         WCI  - WIND CHILL INDEX.
$



USA.gov is the U.S. government's official web portal to all federal, state and local government web resources and services.